Weather in Tieli

China     46°59′04″N   128°02′22″E
temp.,
°C
wind,
m/s
gust,
m/s
humid.,
%
clouds,
%
prec.,
mm/h
press.,
hPa
HPBL,
m
13 april, tue
tue1323:00−4n61076100 0.1 1013716
02:00−4nnw5960100 0.1 1014930
05:00−6nw48720 0.0 1014409
08:00−3nw6945100 0.0 10141242
11:00−1nw7934100 0.0 10132487
14:00−1nw91237100 0.1 10122453
17:00−2nw71147100 0.0 10122141
20:00−3wnw49595 0.0 1012526
14 april, wed
wed1423:00−4w38635 0.0 1011297
02:00−4wsw386512 0.0 1011244
05:00−4w2563100 0.0 1011218
08:000wnw3648100 0.0 1010825
11:00+3wnw61032100 0.0 10092634
14:00+5nw6925100 0.0 10082629
17:00+4nnw363345 0.0 1009351
20:000ene4751100 0.0 1011167
15 april, thu
thu1523:000e2349100 0.1 101158
02:000e465070 0.1 100996
05:00−1e35525 0.0 100980
08:00+5ese4533100 0.0 1009511
11:00+10se4528100 0.0 10071159
14:00+11s6830100 0.0 10051142
17:00+11se6940100 0.0 1004301
20:00+10se71643100 0.0 1002405
16 april, fri
fri1623:00+8sse51348100 0.1 1001279
02:00+7sse5116172 0.1 1000222
05:00+6se3667100 0.0 999115
08:00+11sse4943100 0.0 9971138
11:00+10ssw5652100 0.2 9971534
14:00+7ssw3484100 3.1 997839
17:00+7nne347980 0.9 996585
20:00+5nne1292100 0.9 99768
17 april, sat
sat1723:00+4s2387100 0.2 999184
02:00+4ssw1289100 0.3 1000109
05:00+3wsw2394100 0.6 1003376
08:00+3wnw2396100 0.9 1005442
11:00+7ne3574100 0.1 1006833
14:00+9nne566340 0.1 10081112
17:00+7n5671100 0.1 1010877
20:00+5nnw368197 0.1 1013421